DW5941 Weather Reports


time (UTC)temp
C
wind
direction
speed
KPH
gust
KPH
rain 1hr
cm
rain 24hr
cm
rain mn
cm
humidity
%
barometer
mb
20260504050553 12 350 14.5 0.0 0.00 0.00 0.00 40 1004.2
20260504045552 12 355 11.3 0.0 0.00 0.00 0.00 42 1004.2
20260504045052 13 348 11.3 0.0 0.00 0.00 0.00 42 1004.2
20260504044555 13 341 11.3 0.0 0.00 0.00 0.00 41 1004.0
20260504044052 13 341 12.9 0.0 0.00 0.00 0.00 40 1004.0
20260504043552 13 331 17.7 0.0 0.00 0.00 0.00 40 1004.1
20260504043058 14 318 19.3 0.0 0.00 0.00 0.00 38 1004.2
20260504042553 14 338 19.3 0.0 0.00 0.00 0.00 38 1004.2
20260504042052 13 299 16.1 0.0 0.00 0.00 0.00 39 1004.2
20260504041552 13 324 14.5 0.0 0.00 0.00 0.00 40 1003.9
20260504041052 13 323 12.9 0.0 0.00 0.00 0.00 39 1003.8
20260504040552 14 306 12.9 0.0 0.00 0.00 0.00 39 1003.8
20260504040123 14 309 12.9 0.0 0.00 0.00 0.00 39 1003.7
20260504035552 15 321 14.5 0.0 0.00 0.00 0.00 38 1003.6
20260504035053 15 313 16.1 0.0 0.00 0.00 0.00 37 1003.4
20260504034556 15 312 16.1 0.0 0.00 0.00 0.00 37 1003.4
20260504034051 15 321 17.7 0.0 0.00 0.00 0.00 36 1003.3
20260504033552 15 337 20.9 0.0 0.00 0.00 0.00 36 1003.1
20260504033052 15 11 24.1 0.0 0.00 0.00 0.00 36 1002.8
20260504032551 15 335 25.7 0.0 0.00 0.00 0.00 36 1002.8
20260504032051 16 355 27.4 0.0 0.00 0.00 0.00 35 1002.6
20260504031600 16 327 29.0 0.0 0.00 0.00 0.00 34 1002.5
20260504031052 16 325 32.2 0.0 0.00 0.00 0.00 34 1002.4
20260504030551 17 340 30.6 0.0 0.00 0.00 0.00 33 1002.2
20260504030051 18 334 19.3 0.0 0.00 0.00 0.00 31 1002.1
20260504025554 18 268 14.5 0.0 0.00 0.00 0.00 32 1001.3
20260504025055 18 342 12.9 0.0 0.00 0.00 0.00 32 1001.2
20260504024551 18 284 12.9 0.0 0.00 0.00 0.00 32 1001.2
20260504024050 18 325 14.5 0.0 0.00 0.00 0.00 32 1001.2
20260504023550 18 302 12.9 0.0 0.00 0.00 0.00 32 1001.2
20260504023050 18 284 14.5 0.0 0.00 0.00 0.00 31 1001.1
20260504022551 18 285 14.5 0.0 0.00 0.00 0.00 31 1001.1
20260504022050 18 265 16.1 0.0 0.00 0.00 0.00 31 1001.0
20260504021551 19 264 14.5 0.0 0.00 0.00 0.00 31 1001.0
20260504021050 19 321 14.5 0.0 0.00 0.00 0.00 31 1001.1
20260504020550 20 292 16.1 0.0 0.00 0.00 0.00 30 1001.0
20260504020106 20 292 17.7 0.0 0.00 0.00 0.00 30 1000.9
20260504015552 20 309 17.7 0.0 0.00 0.00 0.00 30 1000.9
20260504015052 20 326 19.3 0.0 0.00 0.00 0.00 29 1000.9
20260504014550 20 273 20.9 0.0 0.00 0.00 0.00 29 1001.0
20260504014049 21 311 22.5 0.0 0.00 0.00 0.00 29 1000.9
20260504013550 21 326 22.5 0.0 0.00 0.00 0.00 28 1000.9
20260504013050 21 346 22.5 0.0 0.00 0.00 0.00 26 1000.8
20260504012550 21 283 20.9 0.0 0.00 0.00 0.00 26 1000.7
20260504012049 22 318 19.3 0.0 0.00 0.00 0.00 24 1000.8
20260504011550 22 254 24.1 0.0 0.00 0.00 0.00 23 1000.8
20260504011049 22 19 27.4 0.0 0.00 0.00 0.00 22 1000.8
20260504010549 22 288 29.0 0.0 0.00 0.00 0.00 21 1000.9
20260504010053 22 266 32.2 0.0 0.00 0.00 0.00 20 1000.9
20260504005549 23 261 32.2 0.0 0.00 0.00 0.00 21 1000.8
20260504005052 22 264 33.8 0.0 0.00 0.00 0.00 21 1000.8
20260504004549 22 261 37.0 0.0 0.00 0.00 0.00 20 1000.7
20260504004049 22 258 38.6 0.0 0.00 0.00 0.00 20 1000.8
20260504003548 23 258 37.0 0.0 0.00 0.00 0.00 20 1000.9
20260504003051 23 267 35.4 0.0 0.00 0.00 0.00 20 1001.1
20260504002547 23 258 35.4 0.0 0.00 0.00 0.00 20 1001.0
20260504002046 23 336 37.0 0.0 0.00 0.00 0.00 19 1001.2
20260504001552 23 271 35.4 0.0 0.00 0.00 0.00 19 1001.3
20260504001046 23 284 37.0 0.0 0.00 0.00 0.00 19 1001.3
20260504000547 23 272 37.0 0.0 0.00 0.00 0.00 19 1001.4
20260504000044 23 244 35.4 0.0 0.00 0.00 0.00 19 1001.3
20260503235544 23 290 35.4 0.0 0.00 0.00 0.00 19 1001.5
20260503235047 23 282 38.6 0.0 0.00 0.00 0.00 20 1001.6
20260503234602 23 251 40.2 0.0 0.00 0.00 0.00 19 1001.5
20260503234048 23 245 40.2 0.0 0.00 0.00 0.00 19 1001.7
20260503233547 24 298 35.4 0.0 0.00 0.00 0.00 19 1001.7
20260503233048 23 263 32.2 0.0 0.00 0.00 0.00 21 1001.7
20260503232543 23 269 32.2 0.0 0.00 0.00 0.00 21 1001.7
20260503232042 23 259 38.6 0.0 0.00 0.00 0.00 22 1001.9
20260503231542 23 262 40.2 0.0 0.00 0.00 0.00 21 1002.0
20260503231041 24 241 35.4 0.0 0.00 0.00 0.00 21 1001.8
20260503230544 23 252 35.4 0.0 0.00 0.00 0.00 22 1002.3
20260503230041 23 234 37.0 0.0 0.00 0.00 0.00 22 1002.4
20260503225538 23 257 38.6 0.0 0.00 0.00 0.00 22 1002.6
20260503225040 23 244 35.4 0.0 0.00 0.00 0.00 22 1002.8
20260503224538 24 245 33.8 0.0 0.00 0.00 0.00 21 1002.9
20260503224036 23 268 33.8 0.0 0.00 0.00 0.00 21 1002.9
20260503223535 23 248 32.2 0.0 0.00 0.00 0.00 21 1003.0
20260503223036 23 259 35.4 0.0 0.00 0.00 0.00 21 1003.2
20260503222538 23 243 32.2 0.0 0.00 0.00 0.00 20 1003.3
20260503222034 23 264 32.2 0.0 0.00 0.00 0.00 20 1003.3
20260503221537 23 269 30.6 0.0 0.00 0.00 0.00 19 1003.6
20260503221036 23 263 29.0 0.0 0.00 0.00 0.00 19 1003.7
20260503220535 23 253 32.2 0.0 0.00 0.00 0.00 19 1003.8
20260503220031 23 246 35.4 0.0 0.00 0.00 0.00 20 1004.0
20260503215531 23 254 33.8 0.0 0.00 0.00 0.00 19 1004.0
20260503215033 23 265 30.6 0.0 0.00 0.00 0.00 20 1004.1
20260503214530 22 261 33.8 0.0 0.00 0.00 0.00 21 1004.1
20260503214031 23 259 32.2 0.0 0.00 0.00 0.00 19 1004.2
20260503213528 22 254 30.6 0.0 0.00 0.00 0.00 21 1004.3
20260503213028 22 264 32.2 0.0 0.00 0.00 0.00 23 1004.6
20260503212528 22 268 32.2 0.0 0.00 0.00 0.00 24 1004.6
20260503212026 22 234 32.2 0.0 0.00 0.00 0.00 24 1004.8
20260503211526 22 252 32.2 0.0 0.00 0.00 0.00 23 1004.9
20260503211025 22 263 30.6 0.0 0.00 0.00 0.00 23 1005.0
20260503210526 22 248 30.6 0.0 0.00 0.00 0.00 22 1005.1
20260503210025 22 242 30.6 0.0 0.00 0.00 0.00 22 1005.1
20260503205524 22 296 32.2 0.0 0.00 0.00 0.00 25 1005.1
20260503205023 22 268 33.8 0.0 0.00 0.00 0.00 25 1005.3
20260503204524 22 246 30.6 0.0 0.00 0.00 0.00 26 1005.4
20260503204022 22 265 32.2 0.0 0.00 0.00 0.00 26 1005.4
20260503203522 22 266 32.2 0.0 0.00 0.00 0.00 25 1005.5
20260503203021 22 233 32.2 0.0 0.00 0.00 0.00 25 1005.6
20260503202522 22 255 32.2 0.0 0.00 0.00 0.00 23 1005.6
20260503202023 22 260 30.6 0.0 0.00 0.00 0.00 23 1005.6
20260503201521 23 250 32.2 0.0 0.00 0.00 0.00 22 1005.6
20260503201020 23 237 32.2 0.0 0.00 0.00 0.00 22 1005.8
20260503200520 23 266 32.2 0.0 0.00 0.00 0.00 23 1005.7
20260503200019 22 249 35.4 0.0 0.00 0.00 0.00 21 1005.9
20260503195519 22 246 35.4 0.0 0.00 0.00 0.00 22 1006.1
20260503195022 23 260 35.4 0.0 0.00 0.00 0.00 23 1006.2
20260503194517 23 248 35.4 0.0 0.00 0.00 0.00 23 1006.3
20260503194016 22 247 32.2 0.0 0.00 0.00 0.00 26 1006.3
20260503193519 22 241 32.2 0.0 0.00 0.00 0.00 27 1006.6
20260503193015 22 252 35.4 0.0 0.00 0.00 0.00 26 1006.8
20260503192514 22 267 35.4 0.0 0.00 0.00 0.00 25 1006.8
20260503192014 22 264 35.4 0.0 0.00 0.00 0.00 26 1007.0
20260503191512 22 250 35.4 0.0 0.00 0.00 0.00 22 1007.1
20260503191011 22 284 35.4 0.0 0.00 0.00 0.00 26 1007.2
20260503190510 22 252 33.8 0.0 0.00 0.00 0.00 26 1007.3
20260503190010 22 238 35.4 0.0 0.00 0.00 0.00 27 1007.5
20260503185509 22 265 37.0 0.0 0.00 0.00 0.00 27 1007.6
20260503185008 22 249 35.4 0.0 0.00 0.00 0.00 27 1007.7
20260503184514 22 246 30.6 0.0 0.00 0.00 0.00 26 1008.0
20260503184011 22 261 30.6 0.0 0.00 0.00 0.00 26 1008.2
20260503183506 22 247 32.2 0.0 0.00 0.00 0.00 27 1008.3
20260503183005 22 360 30.6 0.0 0.00 0.00 0.00 26 1008.4
20260503182506 22 266 30.6 0.0 0.00 0.00 0.00 27 1008.4
20260503182006 22 263 33.8 0.0 0.00 0.00 0.00 28 1008.6
20260503181506 21 286 35.4 0.0 0.00 0.00 0.00 27 1008.6
20260503181004 21 234 33.8 0.0 0.00 0.00 0.00 29 1008.8
20260503180503 21 255 33.8 0.0 0.00 0.00 0.00 27 1008.7
20260503180002 21 254 33.8 0.0 0.00 0.00 0.00 29 1008.8
20260503175500 21 236 32.2 0.0 0.00 0.00 0.00 29 1009.0
20260503175001 21 247 30.6 0.0 0.00 0.00 0.00 29 1009.1
20260503174601 21 252 30.6 0.0 0.00 0.00 0.00 29 1009.2
20260503174059 21 225 32.2 0.0 0.00 0.00 0.00 29 1009.4
20260503173558 20 235 32.2 0.0 0.00 0.00 0.00 29 1009.6
20260503173110 21 244 27.4 0.0 0.00 0.00 0.00 29 1009.6
20260503172057 20 221 30.6 0.0 0.00 0.00 0.00 29 1009.8
20260503171558 20 242 30.6 0.0 0.00 0.00 0.00 29 1009.9
20260503171055 20 240 30.6 0.0 0.00 0.00 0.00 30 1009.7
20260503170555 20 248 32.2 0.0 0.00 0.00 0.00 30 1010.0
20260503150539 17 222 32.2 0.0 0.00 0.00 0.00 32 1012.0
20260503131023 12 178 12.9 0.0 0.00 0.00 0.00 43 1012.9
20260503130518 11 187 12.9 0.0 0.00 0.00 0.00 44 1012.9
20260503110504 6 218 1.6 0.0 0.00 0.00 0.00 53 1013.8
20260503081542 1 85 0.0 0.0 0.00 0.00 0.00 69 1014.8
20260503081039 1 85 0.0 0.0 0.00 0.00 0.00 71 1014.9
20260503080542 0 85 1.6 0.0 0.00 0.00 0.00 70 1014.9
20260503072033 1 76 3.2 0.0 0.00 0.00 0.00 67 1014.9
20260503071545 1 76 1.6 0.0 0.00 0.00 0.00 67 1014.9
20260503071032 1 76 1.6 0.0 0.00 0.00 0.00 66 1015.0
20260503070532 1 76 3.2 0.0 0.00 0.00 0.00 66 1015.0